Regional Weather Roundup
Issued by NWS

Home | Current Version | Previous Version | Text Only | Print | Product List | Glossary On
Versions: 1 2 3 4 5 6 7 8 9 10 11 12 13 14 15 16 17 18 19 20 21 22 23 24 25 26 27 28 29 30 31 32 33 34 35 36 37 38 39 40 41 42 43 44 45 46 47 48 49 50
000
ASUS43 KFSD 081710
RWRSD

WEATHER ROUNDUP FOR SOUTH DAKOTA
NATIONAL WEATHER SERVICE SIOUX FALLS SD
1100 AM CST MON FEB 08 2016

NOTE: "FAIR" INDICATES FEW OR NO CLOUDS BELOW 12,000 FEET WITH NO
SIGNIFICANT WEATHER AND/OR OBSTRUCTIONS TO VISIBILITY.


SDZ001>005-009-010-012>017-081800-
NORTHWEST AND NORTH CENTRAL SOUTH DAKOTA

CITY           SKY/WX    TMP DP  RH WIND       PRES   REMARKS
BUFFALO          N/A     33  13  43 NW21      30.29S WCI  21
FAITH            N/A     30  14  51 NW23G30   30.32R WCI  17
MOBRIDGE       SUNNY     32  18  56 NW25G33   30.25S WCI  19
$$

SDZ012>016-024>037-041>051-057-063-072>074-081800-
SOUTHWEST AND SOUTH CENTRAL SOUTH DAKOTA

CITY           SKY/WX    TMP DP  RH WIND       PRES   REMARKS
RAPID CTY ARPT CLOUDY    37   6  27 NW26G37   30.33S
PIERRE         CLOUDY    31  18  58 NW26G33   30.29R WCI  17
CUSTER         CLOUDY    30   2  30 NW8G18    30.27R WCI  22
ELLSWORTH AFB  CLOUDY    35   6  29 NW28G39   30.31R WCI  22
PHILIP         MOSUNNY   32  17  54 NW26G35   30.35R WCI  18
PINE RIDGE     CLOUDY    30  13  49 W10       30.37F WCI  21
SPEARFISH      FAIR      32   7  34 W16       30.38S WCI  21
WINNER         FAIR      31  17  56 NW24G37   30.29R WCI  17
$$

SDZ004>011-016>023-039-040-081800-
NORTHEAST SOUTH DAKOTA

CITY           SKY/WX    TMP DP  RH WIND       PRES   REMARKS
ABERDEEN       PTSUNNY   26  13  57 N26G39    30.22R WCI  10
WATERTOWN      LGT SNOW  19  10  68 N31G40    30.10R WCI   0
BROOKINGS      FLURRIES  18  12  77 N26G35    30.08R WCI  -1
SISSETON         N/A     16  12  84 N33G45    30.14S WCI  -5
$$

SDZ017-020-022-023-036>040-048>070-081800-
SOUTHEAST SOUTH DAKOTA

CITY           SKY/WX    TMP DP  RH WIND       PRES   REMARKS
SIOUX FALLS    LGT SNOW  22  14  71 N25G32    30.11S BLWGSNOWWCI   5
HURON          PTSUNNY   25  17  72 N21       30.21R WCI  11
CHAMBERLAIN    SUNNY     30  19  61 NW28G39   30.26R WCI  16
MITCHELL       CLOUDY    27  18  69 N21G31    30.21R WCI  13
YANKTON        PTSUNNY   27  18  69 NW22G29   30.18R WCI  12
$$

ABBREVIATIONS USED IN REMARKS
   TC - TEMPERATURE IN CELSIUS
  WCI - WIND CHILL INDEX
   HX - HEAT INDEX
  VSB - VISIBILITY




USA.gov is the U.S. government's official web portal to all federal, state and local government web resources and services.